• în România
  • Lista ţărilor
  • Pe 7 zile
  • Temperatura apei
  • Hartă satelitară
  • Meteo pe hartă
  • Widget-uri
  • user-avatar
    Intrare

    Meteo pe oră la Larne

    Astăzi, 22 Iulie, Duminică

    Timp Temperatura Precipitaţii Vânt Presiune Umiditate
    00:00 +16°C° 0 mm 3 m/s 758 mmHg 97%
    01:00 +17°C° 0 mm 3 m/s 758 mmHg 97%
    02:00 +17°C° 0 mm 3 m/s 757 mmHg 97%
    03:00 +17°C° 0 mm 3 m/s 757 mmHg 97%
    04:00 +17°C° 0 mm 3 m/s 757 mmHg 97%
    05:00 +17°C° 0 mm 3 m/s 758 mmHg 97%
    06:00 +17°C° 0 mm 3 m/s 758 mmHg 96%
    07:00 +18°C° 0 mm 3 m/s 758 mmHg 94%
    08:00 +19°C° 0 mm 3 m/s 758 mmHg 91%
    09:00 +20°C° 0 mm 3 m/s 758 mmHg 89%
    10:00 +21°C° 0 mm 2 m/s 758 mmHg 85%
    11:00 +23°C° 0 mm 2 m/s 758 mmHg 82%
    12:00 +24°C° 0 mm 2 m/s 758 mmHg 78%
    13:00 +23°C° 0,1 mm 2 m/s 758 mmHg 81%
    14:00 +23°C° 0,1 mm 2 m/s 758 mmHg 84%
    15:00 +22°C° 0,1 mm 3 m/s 758 mmHg 86%
    16:00 +21°C° 0,1 mm 2 m/s 758 mmHg 88%
    17:00 +21°C° 0,1 mm 2 m/s 758 mmHg 90%
    18:00 +21°C° 0,1 mm 2 m/s 758 mmHg 92%
    19:00 +20°C° 0,1 mm 2 m/s 758 mmHg 93%
    20:00 +19°C° 0,1 mm 2 m/s 758 mmHg 94%
    21:00 +20°C° 0,1 mm 1 m/s 758 mmHg 95%
    22:00 +18°C° 0 mm 2 m/s 758 mmHg 96%
    23:00 +18°C° 0 mm 2 m/s 758 mmHg 96%

    Mâine, 23 Iulie, Luni

    Timp Temperatura Precipitaţii Vânt Presiune Umiditate
    00:00 +18°C° 0 mm 3 m/s 757 mmHg 97%
    01:00 +17°C° 0 mm 3 m/s 757 mmHg 97%
    02:00 +17°C° 0 mm 4 m/s 757 mmHg 97%
    03:00 +17°C° 0 mm 4 m/s 757 mmHg 97%
    04:00 +17°C° 0 mm 4 m/s 757 mmHg 97%
    05:00 +17°C° 0 mm 4 m/s 756 mmHg 96%
    06:00 +17°C° 0 mm 4 m/s 756 mmHg 96%
    07:00 +17°C° 0,1 mm 4 m/s 756 mmHg 94%
    08:00 +18°C° 0,1 mm 4 m/s 756 mmHg 93%
    09:00 +18°C° 0,1 mm 4 m/s 756 mmHg 92%
    10:00 +19°C° 0,1 mm 4 m/s 756 mmHg 90%
    11:00 +19°C° 0,1 mm 4 m/s 756 mmHg 88%
    12:00 +20°C° 0,1 mm 4 m/s 756 mmHg 87%
    13:00 +20°C° 0,3 mm 4 m/s 756 mmHg 89%
    14:00 +19°C° 0,3 mm 4 m/s 756 mmHg 90%
    15:00 +19°C° 0,3 mm 3 m/s 756 mmHg 92%
    16:00 +19°C° 0,3 mm 3 m/s 756 mmHg 93%
    17:00 +18°C° 0,3 mm 3 m/s 756 mmHg 95%
    18:00 +18°C° 0,3 mm 2 m/s 756 mmHg 96%
    19:00 +17°C° 0,3 mm 2 m/s 756 mmHg 96%
    20:00 +17°C° 0,3 mm 2 m/s 756 mmHg 96%
    21:00 +16°C° 0,3 mm 2 m/s 756 mmHg 97%
    22:00 +16°C° 0,1 mm 3 m/s 756 mmHg 96%
    23:00 +14°C° 0,1 mm 3 m/s 756 mmHg 95%

    Poimâine, 24 Iulie, Marţi

    Timp Temperatura Precipitaţii Vânt Presiune Umiditate
    00:00 +14°C° 0,1 mm 3 m/s 756 mmHg 94%
    01:00 +13°C° 0 mm 3 m/s 756 mmHg 94%
    02:00 +13°C° 0 mm 2 m/s 756 mmHg 94%
    03:00 +13°C° 0 mm 2 m/s 756 mmHg 93%
    04:00 +13°C° 0 mm 2 m/s 756 mmHg 93%
    05:00 +13°C° 0 mm 2 m/s 756 mmHg 93%
    06:00 +13°C° 0 mm 2 m/s 756 mmHg 94%
    07:00 +14°C° 0 mm 2 m/s 756 mmHg 89%
    08:00 +15°C° 0 mm 2 m/s 756 mmHg 85%
    09:00 +16°C° 0 mm 2 m/s 757 mmHg 80%
    10:00 +16°C° 0 mm 2 m/s 757 mmHg 78%
    11:00 +17°C° 0 mm 2 m/s 757 mmHg 75%
    12:00 +17°C° 0 mm 2 m/s 757 mmHg 72%
    13:00 +17°C° 0 mm 2 m/s 757 mmHg 69%
    14:00 +18°C° 0 mm 2 m/s 757 mmHg 66%
    15:00 +18°C° 0 mm 2 m/s 757 mmHg 64%
    16:00 +18°C° 0 mm 2 m/s 758 mmHg 65%
    17:00 +18°C° 0 mm 2 m/s 758 mmHg 66%
    18:00 +18°C° 0 mm 2 m/s 758 mmHg 68%
    19:00 +16°C° 0 mm 1 m/s 758 mmHg 72%
    20:00 +15°C° 0 mm 1 m/s 758 mmHg 77%
    21:00 +14°C° 0 mm 1 m/s 758 mmHg 81%
    22:00 +14°C° 0 mm 1 m/s 758 mmHg 82%
    23:00 +13°C° 0 mm 1 m/s 759 mmHg 83%

    25 Iulie, Miercuri

    Timp Temperatura Precipitaţii Vânt Presiune Umiditate
    00:00 +13°C° 0 mm 1 m/s 759 mmHg 84%
    01:00 +13°C° 0 mm 1 m/s 758 mmHg 86%
    02:00 +13°C° 0 mm 1 m/s 758 mmHg 87%
    03:00 +12°C° 0 mm 1 m/s 758 mmHg 88%
    04:00 +13°C° 0 mm 1 m/s 758 mmHg 88%
    05:00 +13°C° 0 mm 2 m/s 758 mmHg 88%
    06:00 +13°C° 0 mm 2 m/s 758 mmHg 88%
    07:00 +14°C° 0 mm 2 m/s 758 mmHg 82%
    08:00 +16°C° 0 mm 3 m/s 758 mmHg 76%
    09:00 +17°C° 0 mm 3 m/s 758 mmHg 70%
    10:00 +18°C° 0 mm 4 m/s 757 mmHg 69%
    11:00 +19°C° 0 mm 5 m/s 757 mmHg 68%
    12:00 +20°C° 0 mm 5 m/s 757 mmHg 66%
    13:00 +20°C° 0 mm 6 m/s 756 mmHg 67%
    14:00 +20°C° 0 mm 6 m/s 756 mmHg 68%
    15:00 +18°C° 0 mm 7 m/s 755 mmHg 68%
    16:00 +18°C° 0 mm 7 m/s 755 mmHg 70%
    17:00 +18°C° 0 mm 7 m/s 754 mmHg 72%
    18:00 +17°C° 0 mm 7 m/s 754 mmHg 75%
    19:00 +17°C° 0 mm 7 m/s 754 mmHg 77%
    20:00 +16°C° 0 mm 8 m/s 754 mmHg 80%
    21:00 +16°C° 0 mm 8 m/s 754 mmHg 83%
    22:00 +16°C° 0 mm 8 m/s 754 mmHg 83%
    23:00 +16°C° 0 mm 8 m/s 754 mmHg 83%

    26 Iulie, Joi

    Timp Temperatura Precipitaţii Vânt Presiune Umiditate
    00:00 +16°C° 0 mm 8 m/s 754 mmHg 83%
    01:00 +16°C° 0 mm 7 m/s 754 mmHg 85%
    02:00 +15°C° 0 mm 6 m/s 754 mmHg 88%
    03:00 +15°C° 0 mm 5 m/s 755 mmHg 90%
    04:00 +14°C° 0 mm 5 m/s 755 mmHg 90%
    05:00 +14°C° 0 mm 4 m/s 756 mmHg 91%
    06:00 +13°C° 0 mm 3 m/s 756 mmHg 91%
    07:00 +14°C° 0 mm 3 m/s 757 mmHg 85%
    08:00 +17°C° 0 mm 2 m/s 757 mmHg 78%
    09:00 +18°C° 0 mm 2 m/s 758 mmHg 72%
    10:00 +19°C° 0 mm 2 m/s 758 mmHg 69%
    11:00 +20°C° 0 mm 2 m/s 758 mmHg 66%
    12:00 +20°C° 0 mm 2 m/s 758 mmHg 63%
    13:00 +21°C° 0 mm 3 m/s 758 mmHg 63%
    14:00 +21°C° 0 mm 3 m/s 758 mmHg 64%
    15:00 +21°C° 0 mm 4 m/s 758 mmHg 64%
    16:00 +21°C° 0 mm 4 m/s 758 mmHg 67%
    17:00 +20°C° 0 mm 4 m/s 758 mmHg 70%
    18:00 +19°C° 0 mm 4 m/s 757 mmHg 74%
    19:00 +18°C° 0 mm 4 m/s 757 mmHg 80%
    20:00 +17°C° 0 mm 4 m/s 757 mmHg 85%
    21:00 +14°C° 0 mm 4 m/s 757 mmHg 91%
    22:00 +14°C° 0 mm 5 m/s 757 mmHg 91%
    23:00 +14°C° 0 mm 5 m/s 757 mmHg 91%

    27 Iulie, Vineri

    Timp Temperatura Precipitaţii Vânt Presiune Umiditate
    00:00 +14°C° 0 mm 5 m/s 757 mmHg 91%
    01:00 +14°C° 0 mm 5 m/s 757 mmHg 91%
    02:00 +13°C° 0 mm 5 m/s 756 mmHg 90%
    03:00 +13°C° 0 mm 5 m/s 756 mmHg 90%
    04:00 +13°C° 0 mm 5 m/s 756 mmHg 89%
    05:00 +14°C° 0 mm 5 m/s 756 mmHg 87%
    06:00 +14°C° 0 mm 5 m/s 756 mmHg 85%
    07:00 +15°C° 0 mm 5 m/s 756 mmHg 82%
    08:00 +16°C° 0 mm 5 m/s 756 mmHg 78%
    09:00 +17°C° 0 mm 6 m/s 756 mmHg 75%
    10:00 +19°C° 0 mm 5 m/s 756 mmHg 73%
    11:00 +20°C° 0 mm 5 m/s 756 mmHg 71%
    12:00 +20°C° 0 mm 5 m/s 756 mmHg 69%
    13:00 +20°C° 0,3 mm 5 m/s 756 mmHg 72%
    14:00 +20°C° 0,3 mm 5 m/s 757 mmHg 75%
    15:00 +20°C° 0,3 mm 5 m/s 757 mmHg 78%
    16:00 +20°C° 0,4 mm 5 m/s 757 mmHg 79%
    17:00 +20°C° 0,4 mm 4 m/s 757 mmHg 80%
    18:00 +19°C° 0,4 mm 3 m/s 757 mmHg 81%
    19:00 +18°C° 0,2 mm 3 m/s 758 mmHg 84%
    20:00 +17°C° 0,2 mm 2 m/s 758 mmHg 86%
    21:00 +15°C° 0,2 mm 2 m/s 759 mmHg 89%
    22:00 +15°C° 0 mm 2 m/s 759 mmHg 90%
    23:00 +14°C° 0 mm 2 m/s 759 mmHg 90%
    Arată mai mult